User: anonymous   Login
Location: Unspecified
(0.0000°N, 0.0000°E)
Time: 09:26:33
(UTC+00:00)
Language:

EDUSAT - Orbit

View from above orbital plane
View from above orbital plane
View from above satellite
View from above satellite

Ground track
Ground track

The orbit data is extracted from the following two-line orbital elements,

1 37788U 11044A   19345.65441036 +.00000046 +00000-0 +16197-4 0  9992
2 37788 098.3652 131.7681 0039327 096.4432 326.4954 14.70956339446281
Epoch (UTC): 11 December 2019 15:42:21
Eccentricity: 0.0039327
inclination: 98.3652°
perigee height: 630 km
apogee height: 685 km
right ascension of ascending node: 131.7681°
argument of perigee: 96.4432°
revolutions per day: 14.70956339
mean anomaly at epoch: 326.4954°
orbit number at epoch: 44628

The dashed part of the orbit path shows where the satellite is in the earth's shadow,  

DLR